[[{"header":{"parameterUnit":"m.s-1","parameterCategory":1,"la1":30.2991,"la2":30.254,"lo1":-89.0895,"lo2":-89.0444,"dy":0.0017,"dx":0.0017,"nx":28,"ny":28,"refTime":"2024-08-20T09:00:00:Z","depth":0,"parameterNumber":2,"parameterNumberName":"U-component_of_WINDS"},"data":[0,0,0,0,0,0,0,0,0,0,0,0,0,0,0,0,0,0,0,0,0,0,0,0,0,0,0,0,0,0,0,0,0,0,0,0,0,0,0,0,0,0,0,0,0,0,0,0,0,0,0,0,0,0,0,0,0,0,-0.462,-0.4619,0,-0.4515,-0.4514,-0.4513,-0.4475,-0.4475,-0.4475,-0.4476,-0.4364,-0.4361,-0.4357,0,0,0,0,0,0,0,0,0,0,0,0,0,-0.4783,-0.478,-0.462,-0.4618,-0.4617,-0.4515,-0.4514,-0.4512,-0.4475,-0.4475,-0.4475,-0.4476,-0.4365,-0.4361,-0.4357,0,0,0,0,0,0,0,0,0,0,0,0,0,-0.4699,-0.478,-0.462,-0.4586,-0.4582,-0.4516,-0.4514,-0.4512,-0.4474,-0.4475,-0.4476,-0.4476,-0.4366,-0.4361,-0.4356,-0.4314,0,0,-0.4341,-0.4339,0,0,0,0,0,0,0,0,-0.4704,-0.4693,-0.4592,-0.4588,-0.4584,-0.4509,-0.453,-0.4446,-0.4474,-0.4515,-0.4476,-0.4476,-0.4411,-0.4403,-0.4381,-0.4309,-0.4304,-0.4341,-0.4338,-0.4336,-0.4334,0,0,0,0,0,0,0,-0.4709,-0.4697,-0.4578,-0.4591,-0.4586,-0.4575,-0.4564,-0.4514,-0.4461,-0.4512,-0.4509,-0.4497,-0.4409,-0.4386,-0.4379,-0.4303,-0.4341,-0.4336,-0.4333,-0.4331,-0.4191,-0.4191,0,0,0,0,0,0,-0.4722,-0.4702,-0.4581,-0.4575,-0.4646,-0.4572,-0.4559,-0.4532,-0.4462,-0.4452,-0.4497,-0.4496,-0.4395,-0.4384,-0.4375,-0.4321,-0.4336,-0.4331,-0.4328,-0.4192,-0.4191,-0.419,0,0,0,0,0,0,-0.4725,-0.4711,-0.4586,-0.4638,-0.4621,-0.4568,-0.4538,-0.453,-0.4507,-0.445,-0.444,-0.4484,-0.4395,-0.4382,-0.433,-0.4317,-0.4329,-0.4324,-0.4193,-0.4192,-0.4191,-0.4214,0,0,0,0,0,0,-0.473,-0.4713,-0.4697,-0.4638,-0.4618,-0.4544,-0.4538,-0.4527,-0.4499,-0.4497,-0.4436,-0.4426,-0.4394,-0.4338,-0.4325,-0.431,-0.432,-0.4194,-0.4192,-0.4191,-0.4214,-0.4214,-0.4214,0,0,0,0,0,-0.4736,-0.4707,-0.4696,-0.4682,-0.4598,-0.4544,-0.4532,-0.4498,-0.4498,-0.4482,-0.4445,-0.4428,-0.4321,-0.4333,-0.4318,-0.4302,-0.4194,-0.4193,-0.4191,-0.4214,-0.4214,-0.4214,0,0,0,0,0,0,-0.4764,-0.4698,-0.4686,-0.4637,-0.4597,-0.4537,-0.4515,-0.4498,-0.4456,-0.4455,-0.4412,-0.4399,-0.4351,-0.4321,-0.4336,-0.4258,-0.4256,-0.4252,-0.4279,-0.4278,-0.4278,-0.4286,-0.4316,0,0,0,0,0,-0.4765,-0.4727,-0.4671,-0.4633,-0.4614,-0.4568,-0.4543,-0.452,-0.4476,-0.4458,-0.4418,-0.4374,-0.4331,-0.4303,-0.4259,-0.421,-0.4196,-0.4191,-0.4191,-0.4191,-0.4187,-0.4159,-0.4157,-0.4185,-0.4185,-0.4185,0,0,-0.4765,-0.4725,-0.4703,-0.4638,-0.4604,-0.4565,-0.4554,-0.4513,-0.4484,-0.4451,-0.4401,-0.437,-0.4318,-0.4268,-0.4244,-0.4242,-0.4177,-0.4189,-0.4189,-0.4185,-0.4157,-0.4155,-0.4152,-0.4184,-0.4184,-0.4184,0,0,-0.4746,-0.4712,-0.4677,-0.4644,-0.4593,-0.4563,-0.4555,-0.4498,-0.4477,-0.4426,-0.4401,-0.4365,-0.4291,-0.4255,-0.4228,-0.4197,-0.4179,-0.4184,-0.4182,-0.4155,-0.4153,-0.4151,-0.414,-0.4136,-0.418,-0.4181,-0.4181,0,-0.4753,-0.4695,-0.4661,-0.4622,-0.4594,-0.4565,-0.4528,-0.4497,-0.4434,-0.4415,-0.4414,-0.4321,-0.4284,-0.4225,-0.4218,-0.4196,-0.4185,-0.419,-0.4156,-0.4154,-0.4151,-0.414,-0.4136,-0.4181,-0.4181,-0.4181,-0.4181,0,-0.4705,-0.4666,-0.4643,-0.4585,-0.4555,-0.4517,-0.4476,-0.4449,-0.4429,-0.4399,-0.4348,-0.4303,-0.4251,-0.4235,-0.4214,-0.4173,-0.4173,-0.4165,-0.4163,-0.415,-0.4139,-0.4134,-0.4183,-0.4182,-0.4182,-0.4182,0,0,-0.47,-0.4625,-0.4617,-0.4591,-0.4533,-0.4501,-0.4462,-0.4413,-0.4391,-0.4348,-0.4314,-0.4253,-0.4245,-0.4214,-0.4189,-0.4165,-0.4144,-0.4159,-0.4157,-0.4158,-0.4096,-0.4103,-0.4099,-0.4132,-0.4131,-0.4131,-0.4101,0,-0.4674,-0.4605,-0.4573,-0.4518,-0.448,-0.4453,-0.4419,-0.4379,-0.4351,-0.4314,-0.4281,-0.4239,-0.4231,-0.4212,-0.4188,-0.4152,-0.4131,-0.4154,-0.4099,-0.4098,-0.4113,-0.4093,-0.41,-0.4073,-0.4096,-0.4095,-0.4095,0,-0.4633,-0.4593,-0.4535,-0.4483,-0.4466,-0.4436,-0.4388,-0.4354,-0.4308,-0.4289,-0.4255,-0.4231,-0.4189,-0.419,-0.413,-0.4146,-0.4122,-0.4101,-0.4099,-0.4092,-0.4095,-0.4085,-0.4064,-0.406,-0.4087,-0.4088,-0.4089,0,-0.4636,-0.4567,-0.4523,-0.4501,-0.4439,-0.4419,-0.4392,-0.4347,-0.432,-0.4278,-0.4259,-0.4212,-0.4186,-0.415,-0.4114,-0.4118,-0.4058,-0.4056,-0.4039,-0.404,-0.4027,-0.4029,-0.4002,-0.4012,-0.4012,-0.4013,-0.4013,0,-0.4609,-0.4574,-0.4523,-0.4496,-0.4456,-0.442,-0.4381,-0.4352,-0.4313,-0.4279,-0.4252,-0.422,-0.4175,-0.4137,-0.4109,-0.4064,-0.4052,-0.4034,-0.4027,-0.4037,-0.4039,-0.402,-0.4021,-0.4011,-0.4012,-0.4012,-0.4012,0,-0.4605,-0.4569,-0.452,-0.4466,-0.4451,-0.4424,-0.4377,-0.435,-0.432,-0.4278,-0.4266,-0.4219,-0.4173,-0.4134,-0.4073,-0.4054,-0.4008,-0.3999,-0.4024,-0.402,-0.4006,-0.4008,-0.3965,-0.3958,-0.3974,-0.3974,-0.3974,0,-0.459,-0.4563,-0.4507,-0.4483,-0.4457,-0.4419,-0.4391,-0.4355,-0.4327,-0.4274,-0.4252,-0.4205,-0.4166,-0.4094,-0.4054,-0.4008,-0.3997,-0.3986,-0.399,-0.4001,-0.3997,-0.3999,-0.3996,-0.3986,-0.3986,-0.3986,-0.3986,0,-0.4568,-0.4552,-0.4514,-0.447,-0.4439,-0.4402,-0.4364,-0.4346,-0.4302,-0.4272,-0.4227,-0.4196,-0.4136,-0.4089,-0.4039,-0.4009,-0.399,-0.3985,-0.3979,-0.3988,-0.4004,-0.3995,-0.4023,-0.3986,-0.3986,-0.3986,-0.3986,-0.3986,-0.4557,-0.4533,-0.449,-0.4448,-0.4417,-0.4382,-0.4354,-0.4322,-0.4284,-0.4233,-0.4213,-0.4167,-0.4122,-0.4053,-0.4023,-0.3986,-0.3982,-0.3973,-0.3971,-0.3969,-0.3971,-0.401,-0.3976,-0.3976,-0.3976,-0.3976,-0.3976,0,-0.4534,-0.4506,-0.4468,-0.4417,-0.4385,-0.4372,-0.433,-0.4303,-0.4263,-0.4224,-0.4186,-0.4134,-0.4089,-0.4046,-0.3998,-0.3976,-0.3966,-0.3965,-0.3966,-0.396,-0.3976,-0.3987,-0.3974,-0.3974,-0.3974,-0.3974,-0.3974,-0.3974,-0.4518,-0.4475,-0.4455,-0.4396,-0.4367,-0.4322,-0.4299,-0.4267,-0.4236,-0.418,-0.4143,-0.4116,-0.4075,-0.4025,-0.3983,-0.3971,-0.3955,-0.3956,-0.3942,-0.3958,-0.3959,-0.3959,-0.3969,-0.3953,-0.3953,-0.3928,-0.3928,-0.3928]},{"header":{"parameterUnit":"m.s-1","parameterCategory":1,"la1":30.2991,"la2":30.254,"lo1":-89.0895,"lo2":-89.0444,"dy":0.0017,"dx":0.0017,"nx":28,"ny":28,"refTime":"2024-08-20T09:00:00:Z","depth":0,"parameterNumber":3,"parameterNumberName":"V-component_of_WINDS"},"data":[0,0,0,0,0,0,0,0,0,0,0,0,0,0,0,0,0,0,0,0,0,0,0,0,0,0,0,0,0,0,0,0,0,0,0,0,0,0,0,0,0,0,0,0,0,0,0,0,0,0,0,0,0,0,0,0,0,0,-0.2161,-0.2162,0,-0.2235,-0.2235,-0.2236,-0.2265,-0.2265,-0.2265,-0.2265,-0.2341,-0.2343,-0.2346,0,0,0,0,0,0,0,0,0,0,0,0,0,-0.2046,-0.2048,-0.2161,-0.2162,-0.2163,-0.2234,-0.2235,-0.2237,-0.2265,-0.2265,-0.2265,-0.2265,-0.2341,-0.2343,-0.2346,0,0,0,0,0,0,0,0,0,0,0,0,0,-0.2106,-0.2049,-0.2161,-0.2186,-0.2189,-0.2234,-0.2236,-0.2237,-0.2265,-0.2265,-0.2265,-0.2265,-0.234,-0.2343,-0.2346,-0.2373,0,0,-0.2356,-0.2358,0,0,0,0,0,0,0,0,-0.2102,-0.211,-0.2181,-0.2184,-0.2187,-0.224,-0.2223,-0.2282,-0.2266,-0.2236,-0.2265,-0.2264,-0.2308,-0.2314,-0.2328,-0.2376,-0.2379,-0.2357,-0.2359,-0.236,-0.2361,0,0,0,0,0,0,0,-0.2098,-0.2107,-0.219,-0.2182,-0.2186,-0.2194,-0.2202,-0.2235,-0.2273,-0.2239,-0.2241,-0.2249,-0.231,-0.2325,-0.233,-0.2381,-0.2357,-0.236,-0.2362,-0.2363,-0.2455,-0.2455,0,0,0,0,0,0,-0.209,-0.2103,-0.2188,-0.2192,-0.2143,-0.2196,-0.2205,-0.2224,-0.2273,-0.228,-0.225,-0.2251,-0.232,-0.2327,-0.2333,-0.2368,-0.236,-0.2363,-0.2365,-0.2454,-0.2455,-0.2455,0,0,0,0,0,0,-0.2087,-0.2097,-0.2185,-0.2148,-0.216,-0.2198,-0.2219,-0.2225,-0.2241,-0.2281,-0.2288,-0.2258,-0.232,-0.2329,-0.2363,-0.2371,-0.2365,-0.2368,-0.2454,-0.2454,-0.2455,-0.2437,0,0,0,0,0,0,-0.2084,-0.2096,-0.2106,-0.2148,-0.2162,-0.2212,-0.222,-0.2227,-0.2246,-0.2248,-0.2291,-0.2298,-0.232,-0.2358,-0.2366,-0.2375,-0.237,-0.2453,-0.2454,-0.2455,-0.2437,-0.2437,-0.2437,0,0,0,0,0,-0.2079,-0.2098,-0.2106,-0.2116,-0.2175,-0.2213,-0.2221,-0.2246,-0.2247,-0.2258,-0.2283,-0.2296,-0.2369,-0.2361,-0.2371,-0.2381,-0.2453,-0.2454,-0.2455,-0.2437,-0.2437,-0.2437,0,0,0,0,0,0,-0.2055,-0.2104,-0.2114,-0.2146,-0.2175,-0.2218,-0.2232,-0.2245,-0.2275,-0.2275,-0.2306,-0.2315,-0.2347,-0.2367,-0.2358,-0.241,-0.2412,-0.2415,-0.2395,-0.2395,-0.2395,-0.239,-0.2373,0,0,0,0,0,-0.2054,-0.208,-0.2121,-0.2146,-0.216,-0.2193,-0.2211,-0.2228,-0.2259,-0.2272,-0.23,-0.233,-0.236,-0.2379,-0.2408,-0.244,-0.245,-0.2452,-0.2452,-0.2452,-0.2454,-0.2474,-0.2475,-0.2458,-0.2458,-0.2458,0,0,-0.2051,-0.2081,-0.2095,-0.2142,-0.2166,-0.2193,-0.2203,-0.2231,-0.2252,-0.2276,-0.231,-0.2332,-0.2368,-0.2401,-0.2417,-0.2419,-0.2461,-0.2453,-0.2453,-0.2455,-0.2475,-0.2476,-0.2478,-0.2459,-0.2459,-0.2459,0,0,-0.206,-0.2084,-0.2108,-0.2133,-0.217,-0.2192,-0.2197,-0.2238,-0.2254,-0.2288,-0.2307,-0.2332,-0.2382,-0.2407,-0.2426,-0.2445,-0.2458,-0.2454,-0.2454,-0.2472,-0.2473,-0.2475,-0.2482,-0.2484,-0.2456,-0.2456,-0.2456,0,-0.2052,-0.2093,-0.2119,-0.2146,-0.2166,-0.2189,-0.2214,-0.2236,-0.2281,-0.2295,-0.2296,-0.236,-0.2386,-0.2426,-0.243,-0.2445,-0.2453,-0.2449,-0.2471,-0.2473,-0.2474,-0.2482,-0.2484,-0.2455,-0.2455,-0.2455,-0.2455,0,-0.2081,-0.2109,-0.2124,-0.2167,-0.2189,-0.2214,-0.2245,-0.2264,-0.2279,-0.2302,-0.2337,-0.2369,-0.2405,-0.2416,-0.2431,-0.2458,-0.2458,-0.2465,-0.2468,-0.2475,-0.2482,-0.2485,-0.2454,-0.2454,-0.2455,-0.2455,0,0,-0.2077,-0.2134,-0.2139,-0.2159,-0.2201,-0.2224,-0.2251,-0.2287,-0.2303,-0.2333,-0.2357,-0.2399,-0.2406,-0.2427,-0.2446,-0.2462,-0.2475,-0.2467,-0.2468,-0.2468,-0.2508,-0.2503,-0.2505,-0.2484,-0.2485,-0.2485,-0.2505,0,-0.2091,-0.214,-0.2165,-0.2204,-0.2231,-0.2253,-0.2277,-0.2306,-0.2327,-0.2354,-0.2378,-0.2407,-0.2414,-0.2427,-0.2444,-0.247,-0.2484,-0.2469,-0.2507,-0.2508,-0.2498,-0.2509,-0.2504,-0.2521,-0.2508,-0.2508,-0.2509,0,-0.2115,-0.2145,-0.2186,-0.2226,-0.2239,-0.2259,-0.2294,-0.2319,-0.2353,-0.2367,-0.2392,-0.241,-0.244,-0.244,-0.2482,-0.2471,-0.2488,-0.2503,-0.2505,-0.251,-0.2509,-0.2515,-0.2527,-0.253,-0.2513,-0.2513,-0.2513,0,-0.2108,-0.2159,-0.219,-0.2207,-0.2254,-0.2268,-0.2289,-0.2322,-0.2342,-0.2373,-0.2386,-0.242,-0.2439,-0.2465,-0.2491,-0.2489,-0.2531,-0.2533,-0.2544,-0.2544,-0.2552,-0.2552,-0.2568,-0.2563,-0.2563,-0.2562,-0.2562,0,-0.2122,-0.2147,-0.2188,-0.2207,-0.2236,-0.2264,-0.2292,-0.2314,-0.2344,-0.2368,-0.239,-0.2412,-0.2446,-0.2473,-0.2494,-0.2526,-0.2534,-0.2547,-0.2552,-0.2545,-0.2544,-0.2557,-0.2557,-0.2563,-0.2563,-0.2563,-0.2563,0,-0.212,-0.2148,-0.2184,-0.2226,-0.2237,-0.2256,-0.2293,-0.2313,-0.2335,-0.2366,-0.2375,-0.2411,-0.2444,-0.2473,-0.2516,-0.2531,-0.2563,-0.257,-0.2552,-0.2555,-0.2565,-0.2564,-0.2591,-0.2596,-0.2586,-0.2586,-0.2586,0,-0.2127,-0.2146,-0.2191,-0.2208,-0.2229,-0.2257,-0.2278,-0.2307,-0.2328,-0.2368,-0.2383,-0.2417,-0.2446,-0.2498,-0.2528,-0.2562,-0.2569,-0.2577,-0.2575,-0.2567,-0.257,-0.2569,-0.2571,-0.2577,-0.2576,-0.2576,-0.2576,0,-0.2137,-0.215,-0.2179,-0.2213,-0.2237,-0.2265,-0.2294,-0.2308,-0.2342,-0.2365,-0.2398,-0.2421,-0.2466,-0.25,-0.2537,-0.2558,-0.2573,-0.2577,-0.2581,-0.2575,-0.2564,-0.257,-0.2552,-0.2576,-0.2576,-0.2576,-0.2576,-0.2576,-0.214,-0.2159,-0.2193,-0.2224,-0.2249,-0.2276,-0.2297,-0.2322,-0.2351,-0.239,-0.2405,-0.244,-0.2474,-0.2525,-0.2546,-0.2574,-0.2577,-0.2583,-0.2585,-0.2586,-0.2585,-0.2559,-0.2581,-0.2581,-0.2581,-0.2581,-0.2581,0,-0.2152,-0.2175,-0.2204,-0.2244,-0.2269,-0.228,-0.2313,-0.2333,-0.2364,-0.2394,-0.2422,-0.2461,-0.2495,-0.2527,-0.2563,-0.2579,-0.2587,-0.2587,-0.2586,-0.2591,-0.258,-0.2573,-0.258,-0.258,-0.258,-0.258,-0.258,-0.258,-0.2161,-0.2193,-0.221,-0.2256,-0.2279,-0.2313,-0.2331,-0.2356,-0.238,-0.2423,-0.2451,-0.2472,-0.2503,-0.2541,-0.2572,-0.2581,-0.2593,-0.2592,-0.2603,-0.2592,-0.2592,-0.2592,-0.2585,-0.2594,-0.2594,-0.2612,-0.2612,-0.2612]}]]